User: anonymous   Login
Location: *
(44.3925°N, 5.4708°E)
Time: 01:50:00
(UTC+00:00)
Language:

ATLAS 2AS CENTAUR R/B - Orbit

View from above orbital plane
View from above orbital plane
View from above satellite
View from above satellite

Ground track
Ground track

The orbit data is extracted from the following two-line orbital elements,

1 28096U 03054B   19322.16898461 0.00000000  00000-0  00000-0 0    00
2 28096  63.6833 343.5989 0240258 237.0737 122.9263 13.40856316    09
Epoch (UTC): 18 November 2019 04:03:20
Eccentricity: 0.0240258
inclination: 63.6833°
perigee height: 926 km
apogee height: 1286 km
right ascension of ascending node: 343.5989°
argument of perigee: 237.0737°
revolutions per day: 13.40856316
mean anomaly at epoch: 122.9263°
orbit number at epoch: 0

The dashed part of the orbit path shows where the satellite is in the earth's shadow,  

DLR